Time,TemperatureF,DewpointF,PressureIn,WindDirection,WindDirectionDegrees,WindSpeedMPH,WindSpeedGustMPH,Humidity,HourlyPrecipIn,Conditions,Clouds,dailyrainin,SoftwareType,DateUTC
2013-04-10 00:00:00,66.9,52.5,30.06,South,189,0.0,0.0,60,0.00,,---,0.00,VWS V14.01,2013-04-10 04:00:00,
2013-04-10 00:05:00,66.9,53.0,30.06,South,188,0.0,0.0,61,0.00,,---,0.00,VWS V14.01,2013-04-10 04:05:00,
2013-04-10 00:10:00,66.7,52.8,30.06,South,190,0.0,0.0,61,0.00,,---,0.00,VWS V14.01,2013-04-10 04:10:00,
2013-04-10 00:15:00,66.7,52.8,30.06,South,187,0.0,0.0,61,0.00,,---,0.00,VWS V14.01,2013-04-10 04:15:00,
2013-04-10 00:20:00,66.6,53.1,30.06,SSW,199,0.0,0.0,62,0.00,,---,0.00,VWS V14.01,2013-04-10 04:20:00,
2013-04-10 00:25:00,66.6,53.6,30.03,SSW,205,0.0,0.0,63,0.00,,---,0.00,VWS V14.01,2013-04-10 04:25:00,
2013-04-10 00:30:00,66.4,53.9,30.03,SSW,202,2.7,2.7,64,0.00,,---,0.00,VWS V14.01,2013-04-10 04:30:00,
2013-04-10 00:35:00,66.4,53.9,30.03,SSE,168,0.0,0.0,64,0.00,,---,0.00,VWS V14.01,2013-04-10 04:35:00,
2013-04-10 00:40:00,66.4,53.9,30.03,SSE,166,0.0,0.0,64,0.00,,---,0.00,VWS V14.01,2013-04-10 04:40:00,
2013-04-10 00:45:00,66.2,54.1,30.03,South,182,0.0,0.0,65,0.00,,---,0.00,VWS V14.01,2013-04-10 04:45:00,
2013-04-10 00:50:00,66.2,54.1,30.03,SSW,207,0.0,0.0,65,0.00,,---,0.00,VWS V14.01,2013-04-10 04:50:00,
2013-04-10 00:55:00,66.2,54.1,30.03,South,178,0.0,0.0,65,0.00,,---,0.00,VWS V14.01,2013-04-10 04:55:00,
2013-04-10 01:00:00,66.0,54.0,30.03,South,178,2.2,2.2,65,0.00,,---,0.00,VWS V14.01,2013-04-10 05:00:00,
2013-04-10 01:05:00,66.0,53.5,30.03,South,178,0.0,0.0,64,0.00,,---,0.00,VWS V14.01,2013-04-10 05:05:00,
2013-04-10 01:10:00,66.0,54.0,30.03,SSE,154,0.0,0.0,65,0.00,,---,0.00,VWS V14.01,2013-04-10 05:10:00,
2013-04-10 01:15:00,66.0,54.0,30.03,SSE,163,0.0,0.0,65,0.00,,---,0.00,VWS V14.01,2013-04-10 05:15:00,
2013-04-10 01:20:00,65.8,53.8,30.03,South,170,0.0,0.0,65,0.00,,---,0.00,VWS V14.01,2013-04-10 05:20:00,
2013-04-10 01:25:00,65.7,54.1,30.03,South,186,0.0,0.0,66,0.00,,---,0.00,VWS V14.01,2013-04-10 05:25:00,
2013-04-10 01:30:00,65.7,54.5,30.03,South,186,0.0,0.0,67,0.00,,---,0.00,VWS V14.01,2013-04-10 05:30:00,
2013-04-10 01:35:00,65.5,54.3,30.03,South,186,0.0,0.0,67,0.00,,---,0.00,VWS V14.01,2013-04-10 05:35:00,
2013-04-10 01:40:00,65.5,54.3,30.03,SSE,162,0.0,0.0,67,0.00,,---,0.00,VWS V14.01,2013-04-10 05:40:00,
2013-04-10 01:45:00,65.5,54.8,30.03,SSE,162,0.0,0.0,68,0.00,,---,0.00,VWS V14.01,2013-04-10 05:45:00,
2013-04-10 01:50:00,65.5,54.8,30.03,South,185,0.0,0.0,68,0.00,,---,0.00,VWS V14.01,2013-04-10 05:50:00,
2013-04-10 01:55:00,65.5,54.8,30.03,South,178,0.0,0.0,68,0.00,,---,0.00,VWS V14.01,2013-04-10 05:55:00,
2013-04-10 02:00:00,65.3,54.6,30.03,South,184,0.0,0.0,68,0.00,,---,0.00,VWS V14.01,2013-04-10 06:00:00,
2013-04-10 02:05:00,65.3,54.6,30.03,South,178,0.0,0.0,68,0.00,,---,0.00,VWS V14.01,2013-04-10 06:05:00,
2013-04-10 02:10:00,65.1,54.4,30.00,South,176,0.0,0.0,68,0.00,,---,0.00,VWS V14.01,2013-04-10 06:10:00,
2013-04-10 02:15:00,65.1,54.4,30.00,South,176,0.0,0.0,68,0.00,,---,0.00,VWS V14.01,2013-04-10 06:15:00,
2013-04-10 02:20:00,65.1,54.8,30.00,South,176,0.0,0.0,69,0.00,,---,0.00,VWS V14.01,2013-04-10 06:20:00,
2013-04-10 02:25:00,65.1,54.8,30.00,South,176,0.0,0.0,69,0.00,,---,0.00,VWS V14.01,2013-04-10 06:25:00,
2013-04-10 02:30:00,64.9,54.7,30.00,South,176,0.0,0.0,69,0.00,,---,0.00,VWS V14.01,2013-04-10 06:30:00,
2013-04-10 02:35:00,64.9,54.7,30.00,South,176,0.0,0.0,69,0.00,,---,0.00,VWS V14.01,2013-04-10 06:35:00,
2013-04-10 02:40:00,64.8,54.9,30.00,South,176,0.0,0.0,70,0.00,,---,0.00,VWS V14.01,2013-04-10 06:40:00,
2013-04-10 02:45:00,64.8,54.9,30.00,SSW,195,0.0,0.0,70,0.00,,---,0.00,VWS V14.01,2013-04-10 06:45:00,
2013-04-10 02:50:00,64.6,55.1,30.00,SSW,196,0.0,0.0,71,0.00,,---,0.00,VWS V14.01,2013-04-10 06:50:00,
2013-04-10 02:55:00,64.6,55.1,30.00,SSW,195,0.0,0.0,71,0.00,,---,0.00,VWS V14.01,2013-04-10 06:55:00,
2013-04-10 03:00:00,64.6,55.9,30.00,SSW,196,0.0,0.0,74,0.00,,---,0.00,VWS V14.01,2013-04-10 07:00:00,
2013-04-10 03:05:00,64.4,55.8,30.00,SSW,196,0.0,0.0,74,0.00,,---,0.00,VWS V14.01,2013-04-10 07:05:00,
2013-04-10 03:10:00,64.4,55.8,30.00,SSW,195,0.0,0.0,74,0.00,,---,0.00,VWS V14.01,2013-04-10 07:10:00,
2013-04-10 03:15:00,64.2,56.0,30.00,SSW,196,0.0,0.0,75,0.00,,---,0.00,VWS V14.01,2013-04-10 07:15:00,
2013-04-10 03:20:00,64.2,56.4,30.00,SSW,195,0.0,0.0,76,0.00,,---,0.00,VWS V14.01,2013-04-10 07:20:00,
2013-04-10 03:25:00,64.2,56.4,30.00,SSW,196,0.0,0.0,76,0.00,,---,0.00,VWS V14.01,2013-04-10 07:25:00,
2013-04-10 03:30:00,63.9,56.0,30.00,SSW,195,0.0,0.0,76,0.00,,---,0.00,VWS V14.01,2013-04-10 07:30:00,
2013-04-10 03:35:00,63.9,56.0,30.00,SSW,196,0.0,0.0,76,0.00,,---,0.00,VWS V14.01,2013-04-10 07:35:00,
2013-04-10 03:40:00,63.9,56.0,30.00,SSW,195,0.0,0.0,76,0.00,,---,0.00,VWS V14.01,2013-04-10 07:40:00,
2013-04-10 03:45:00,63.7,56.2,30.00,SSW,196,0.0,0.0,77,0.00,,---,0.00,VWS V14.01,2013-04-10 07:45:00,
2013-04-10 03:50:00,63.5,56.4,30.00,SSW,195,0.0,0.0,78,0.00,,---,0.00,VWS V14.01,2013-04-10 07:50:00,
2013-04-10 03:55:00,63.3,56.2,30.00,SSW,196,0.0,0.0,78,0.00,,---,0.00,VWS V14.01,2013-04-10 07:55:00,
2013-04-10 04:00:00,63.3,56.6,30.00,SSW,196,0.0,0.0,79,0.00,,---,0.00,VWS V14.01,2013-04-10 08:00:00,
2013-04-10 04:05:00,63.1,56.4,30.00,SSW,196,0.0,0.0,79,0.00,,---,0.00,VWS V14.01,2013-04-10 08:05:00,
2013-04-10 04:10:00,63.1,56.8,30.00,SSW,196,0.0,0.0,80,0.00,,---,0.00,VWS V14.01,2013-04-10 08:10:00,
2013-04-10 04:15:00,63.0,57.0,30.00,SSW,195,0.0,0.0,81,0.00,,---,0.00,VWS V14.01,2013-04-10 08:15:00,
2013-04-10 04:20:00,63.0,57.0,30.00,SSW,196,0.0,0.0,81,0.00,,---,0.00,VWS V14.01,2013-04-10 08:20:00,
2013-04-10 04:25:00,63.0,57.3,30.00,SSW,196,0.0,0.0,82,0.00,,---,0.00,VWS V14.01,2013-04-10 08:25:00,
2013-04-10 04:30:00,62.8,57.2,30.00,SSW,195,0.0,0.0,82,0.00,,---,0.00,VWS V14.01,2013-04-10 08:30:00,
2013-04-10 04:35:00,62.8,57.5,30.00,SSW,195,0.0,0.0,83,0.00,,---,0.00,VWS V14.01,2013-04-10 08:35:00,
2013-04-10 04:40:00,62.6,57.4,30.00,SSW,196,0.0,0.0,83,0.00,,---,0.00,VWS V14.01,2013-04-10 08:40:00,
2013-04-10 04:45:00,62.6,57.4,30.00,SSW,196,0.0,0.0,83,0.00,,---,0.00,VWS V14.01,2013-04-10 08:45:00,
2013-04-10 04:50:00,62.6,57.4,30.00,SSW,196,0.0,0.0,83,0.00,,---,0.00,VWS V14.01,2013-04-10 08:50:00,
2013-04-10 04:56:00,62.6,57.7,30.00,SSW,196,0.0,0.0,84,0.00,,---,0.00,VWS V14.01,2013-04-10 08:56:00,
2013-04-10 05:00:00,62.4,57.9,30.00,SSW,196,0.0,0.0,85,0.00,,---,0.00,VWS V14.01,2013-04-10 09:00:00,
2013-04-10 05:06:00,62.2,57.7,30.00,SSW,195,0.0,0.0,85,0.00,,---,0.00,VWS V14.01,2013-04-10 09:06:00,
2013-04-10 05:11:00,62.2,58.0,30.00,SSW,196,0.0,0.0,86,0.00,,---,0.00,VWS V14.01,2013-04-10 09:11:00,
2013-04-10 05:16:00,62.2,58.0,30.00,SSW,196,0.0,0.0,86,0.00,,---,0.00,VWS V14.01,2013-04-10 09:16:00,
2013-04-10 05:21:00,62.2,58.0,30.00,SSW,196,0.0,0.0,86,0.00,,---,0.00,VWS V14.01,2013-04-10 09:21:00,
2013-04-10 05:25:00,62.2,58.0,30.00,SSW,196,0.0,0.0,86,0.00,,---,0.00,VWS V14.01,2013-04-10 09:25:00,
2013-04-10 05:30:00,62.1,57.9,30.00,SSW,195,0.0,0.0,86,0.00,,---,0.00,VWS V14.01,2013-04-10 09:30:00,
2013-04-10 05:35:00,62.1,57.9,30.00,SSW,195,0.0,0.0,86,0.00,,---,0.00,VWS V14.01,2013-04-10 09:35:00,
2013-04-10 05:41:00,61.9,57.7,30.00,SSW,195,0.0,0.0,86,0.00,,---,0.00,VWS V14.01,2013-04-10 09:41:00,
2013-04-10 05:46:00,61.9,57.7,30.00,SSW,196,0.0,0.0,86,0.00,,---,0.00,VWS V14.01,2013-04-10 09:46:00,
2013-04-10 05:51:00,61.7,57.5,30.00,SSW,196,0.0,0.0,86,0.00,,---,0.00,VWS V14.01,2013-04-10 09:51:00,
2013-04-10 05:56:00,61.7,57.5,30.00,SSW,196,0.0,0.0,86,0.00,,---,0.00,VWS V14.01,2013-04-10 09:56:00,
2013-04-10 06:01:00,61.5,57.3,30.00,SSW,196,0.0,0.0,86,0.00,,---,0.00,VWS V14.01,2013-04-10 10:01:00,
2013-04-10 06:06:00,61.3,57.2,30.00,SSW,195,0.0,0.0,86,0.00,,---,0.00,VWS V14.01,2013-04-10 10:06:00,
2013-04-10 06:11:00,61.3,57.2,30.00,SSW,196,0.0,0.0,86,0.00,,---,0.00,VWS V14.01,2013-04-10 10:11:00,
2013-04-10 06:16:00,61.2,57.3,30.00,SSW,196,0.0,0.0,87,0.00,,---,0.00,VWS V14.01,2013-04-10 10:16:00,
2013-04-10 06:21:00,61.2,57.3,30.00,SSW,196,0.0,0.0,87,0.00,,---,0.00,VWS V14.01,2013-04-10 10:21:00,
2013-04-10 06:26:00,61.2,57.3,29.97,SSW,196,0.0,0.0,87,0.00,,---,0.00,VWS V14.01,2013-04-10 10:26:00,
2013-04-10 06:31:00,61.2,57.3,29.97,SSW,196,0.0,0.0,87,0.00,,---,0.00,VWS V14.01,2013-04-10 10:31:00,
2013-04-10 06:36:00,61.2,57.3,29.97,SSW,195,0.0,0.0,87,0.00,,---,0.00,VWS V14.01,2013-04-10 10:36:00,
2013-04-10 06:41:00,61.2,57.3,29.97,SSW,195,0.0,0.0,87,0.00,,---,0.00,VWS V14.01,2013-04-10 10:41:00,
2013-04-10 06:46:00,61.2,57.3,29.97,SSW,196,0.0,0.0,87,0.00,,---,0.00,VWS V14.01,2013-04-10 10:46:00,
2013-04-10 06:51:00,61.2,57.3,29.97,SSW,195,0.0,0.0,87,0.00,,---,0.00,VWS V14.01,2013-04-10 10:51:00,
2013-04-10 06:56:00,61.2,57.3,30.00,SSW,195,0.0,0.0,87,0.00,,---,0.00,VWS V14.01,2013-04-10 10:56:00,
2013-04-10 07:01:00,61.2,57.3,30.00,SSW,196,0.0,0.0,87,0.00,,---,0.00,VWS V14.01,2013-04-10 11:01:00,
2013-04-10 07:06:00,61.0,57.1,30.00,SSW,196,0.0,0.0,87,0.00,,---,0.00,VWS V14.01,2013-04-10 11:06:00,
2013-04-10 07:11:00,61.0,57.1,30.00,SSW,196,0.0,0.0,87,0.00,,---,0.00,VWS V14.01,2013-04-10 11:11:00,
2013-04-10 07:16:00,61.0,57.1,30.00,SSW,195,0.0,0.0,87,0.00,,---,0.00,VWS V14.01,2013-04-10 11:16:00,
2013-04-10 07:21:00,61.0,57.1,30.00,SSW,196,0.0,0.0,87,0.00,,---,0.00,VWS V14.01,2013-04-10 11:21:00,
2013-04-10 07:26:00,61.2,57.7,30.00,SSW,196,0.0,0.0,88,0.00,,---,0.00,VWS V14.01,2013-04-10 11:26:00,
2013-04-10 07:32:00,61.2,57.7,30.00,SSW,196,0.0,0.0,88,0.00,,---,0.00,VWS V14.01,2013-04-10 11:32:00,
2013-04-10 07:37:00,61.3,57.8,30.00,SSW,195,0.0,0.0,88,0.00,,---,0.00,VWS V14.01,2013-04-10 11:37:00,
2013-04-10 07:42:00,61.5,58.0,30.00,SSW,195,0.0,0.0,88,0.00,,---,0.00,VWS V14.01,2013-04-10 11:42:00,
2013-04-10 07:47:00,61.7,58.2,30.00,SSW,196,0.0,0.0,88,0.00,,---,0.00,VWS V14.01,2013-04-10 11:47:00,
2013-04-10 07:52:00,62.1,58.5,30.00,SSW,196,0.0,0.0,88,0.00,,---,0.00,VWS V14.01,2013-04-10 11:52:00,
2013-04-10 07:57:00,62.4,58.9,30.00,SSW,195,0.0,0.0,88,0.00,,---,0.00,VWS V14.01,2013-04-10 11:57:00,
2013-04-10 08:02:00,62.8,58.9,30.00,SSW,195,0.0,0.0,87,0.00,,---,0.00,VWS V14.01,2013-04-10 12:02:00,
2013-04-10 08:07:00,63.3,59.4,30.00,SSW,196,0.0,0.0,87,0.00,,---,0.00,VWS V14.01,2013-04-10 12:07:00,
2013-04-10 08:12:00,63.9,60.0,30.00,SSW,196,0.0,0.0,87,0.00,,---,0.00,VWS V14.01,2013-04-10 12:12:00,
2013-04-10 08:17:00,64.2,60.3,30.00,SSW,195,0.0,0.0,87,0.00,,---,0.00,VWS V14.01,2013-04-10 12:17:00,
2013-04-10 08:22:00,64.8,60.8,30.00,SSW,195,0.0,0.0,87,0.00,,---,0.00,VWS V14.01,2013-04-10 12:22:00,
2013-04-10 08:27:00,65.3,61.0,30.00,SSW,196,0.0,0.0,86,0.00,,---,0.00,VWS V14.01,2013-04-10 12:27:00,
2013-04-10 08:32:00,65.8,61.2,30.00,SSW,195,0.0,0.0,85,0.00,,---,0.00,VWS V14.01,2013-04-10 12:32:00,
2013-04-10 08:37:00,66.2,60.9,30.00,SSW,195,0.0,0.0,83,0.00,,---,0.00,VWS V14.01,2013-04-10 12:37:00,
2013-04-10 08:42:00,66.7,60.7,30.00,SSE,165,2.2,3.6,81,0.00,,---,0.00,VWS V14.01,2013-04-10 12:42:00,
2013-04-10 08:47:00,67.5,59.1,30.00,SE,134,0.0,0.0,75,0.00,,---,0.00,VWS V14.01,2013-04-10 12:47:00,
2013-04-10 08:52:00,68.2,58.6,30.00,SSE,163,0.0,0.0,71,0.00,,---,0.00,VWS V14.01,2013-04-10 12:52:00,
2013-04-10 08:57:00,68.9,57.6,30.00,South,176,0.0,0.0,67,0.00,,---,0.00,VWS V14.01,2013-04-10 12:57:00,
2013-04-10 09:02:00,69.4,55.8,30.00,SE,146,0.0,0.0,62,0.00,,---,0.00,VWS V14.01,2013-04-10 13:02:00,
2013-04-10 09:07:00,70.2,55.6,30.00,ENE,65,0.0,0.0,60,0.00,,---,0.00,VWS V14.01,2013-04-10 13:07:00,
2013-04-10 09:12:00,70.5,52.3,30.00,South,173,0.0,2.7,52,0.00,,---,0.00,VWS V14.01,2013-04-10 13:12:00,
2013-04-10 09:17:00,71.2,51.3,30.00,South,177,0.0,0.0,49,0.00,,---,0.00,VWS V14.01,2013-04-10 13:17:00,
2013-04-10 09:22:00,71.6,51.6,30.03,SSE,167,0.0,0.0,49,0.00,,---,0.00,VWS V14.01,2013-04-10 13:22:00,
2013-04-10 09:27:00,72.1,51.0,30.03,SSW,196,0.0,2.7,47,0.00,,---,0.00,VWS V14.01,2013-04-10 13:27:00,
2013-04-10 09:32:00,72.7,50.8,30.03,South,187,0.0,0.0,46,0.00,,---,0.00,VWS V14.01,2013-04-10 13:32:00,
2013-04-10 09:37:00,73.4,51.5,30.03,SE,140,0.0,0.0,46,0.00,,---,0.00,VWS V14.01,2013-04-10 13:37:00,
2013-04-10 09:42:00,73.8,51.2,30.03,SE,134,0.0,0.0,45,0.00,,---,0.00,VWS V14.01,2013-04-10 13:42:00,
2013-04-10 09:47:00,74.1,50.9,30.03,SSE,160,3.6,3.6,44,0.00,,---,0.00,VWS V14.01,2013-04-10 13:47:00,
2013-04-10 09:52:00,74.8,50.9,30.03,North,357,0.0,0.0,43,0.00,,---,0.00,VWS V14.01,2013-04-10 13:52:00,
2013-04-10 09:57:00,75.2,49.9,30.03,SSW,204,0.0,4.9,41,0.00,,---,0.00,VWS V14.01,2013-04-10 13:57:00,
2013-04-10 10:02:00,75.6,51.5,30.03,East,88,0.0,3.1,43,0.00,,---,0.00,VWS V14.01,2013-04-10 14:02:00,
2013-04-10 10:07:00,75.9,50.5,30.03,South,186,2.7,2.7,41,0.00,,---,0.00,VWS V14.01,2013-04-10 14:07:00,
2013-04-10 10:12:00,76.1,50.0,30.03,South,187,3.6,3.6,40,0.00,,---,0.00,VWS V14.01,2013-04-10 14:12:00,
2013-04-10 10:17:00,76.3,48.7,30.03,ENE,76,4.0,5.8,38,0.00,,---,0.00,VWS V14.01,2013-04-10 14:17:00,
2013-04-10 10:22:00,76.3,48.7,30.03,South,179,0.0,4.0,38,0.00,,---,0.00,VWS V14.01,2013-04-10 14:22:00,
2013-04-10 10:27:00,76.3,50.8,30.03,South,180,0.0,0.0,41,0.00,,---,0.00,VWS V14.01,2013-04-10 14:27:00,
2013-04-10 10:32:00,76.5,48.8,30.03,SSW,193,3.6,8.1,38,0.00,,---,0.00,VWS V14.01,2013-04-10 14:32:00,
2013-04-10 10:37:00,76.5,48.8,30.03,SSE,160,3.6,8.1,38,0.00,,---,0.00,VWS V14.01,2013-04-10 14:37:00,
2013-04-10 10:42:00,76.8,48.4,30.03,SSE,168,4.9,4.9,37,0.00,,---,0.00,VWS V14.01,2013-04-10 14:42:00,
2013-04-10 10:47:00,77.9,47.8,30.03,South,180,0.0,0.0,35,0.00,,---,0.00,VWS V14.01,2013-04-10 14:47:00,
2013-04-10 10:52:00,78.3,48.1,30.03,South,179,2.2,5.8,35,0.00,,---,0.00,VWS V14.01,2013-04-10 14:52:00,
2013-04-10 10:57:00,78.6,47.6,30.03,South,171,4.9,4.9,34,0.00,,---,0.00,VWS V14.01,2013-04-10 14:57:00,
2013-04-10 11:02:00,78.6,47.6,30.03,South,177,3.1,4.0,34,0.00,,---,0.00,VWS V14.01,2013-04-10 15:02:00,
2013-04-10 11:07:00,78.8,48.6,30.03,South,184,0.0,0.0,35,0.00,,---,0.00,VWS V14.01,2013-04-10 15:07:00,
2013-04-10 11:12:00,79.2,48.1,30.03,NE,39,4.9,4.9,34,0.00,,---,0.00,VWS V14.01,2013-04-10 15:12:00,
2013-04-10 11:17:00,79.7,48.6,30.03,South,189,2.2,3.6,34,0.00,,---,0.00,VWS V14.01,2013-04-10 15:17:00,
2013-04-10 11:22:00,79.9,47.9,30.03,West,272,0.0,2.2,33,0.00,,---,0.00,VWS V14.01,2013-04-10 15:22:00,
2013-04-10 11:27:00,79.3,47.4,30.03,South,185,2.7,4.9,33,0.00,,---,0.00,VWS V14.01,2013-04-10 15:27:00,
2013-04-10 11:32:00,78.8,46.9,30.03,South,173,0.0,3.1,33,0.00,,---,0.00,VWS V14.01,2013-04-10 15:32:00,
2013-04-10 11:37:00,78.8,47.8,30.00,SSE,168,0.0,0.0,34,0.00,,---,0.00,VWS V14.01,2013-04-10 15:37:00,
2013-04-10 11:42:00,78.6,48.4,30.00,South,179,4.9,4.9,35,0.00,,---,0.00,VWS V14.01,2013-04-10 15:42:00,
2013-04-10 11:47:00,78.6,49.2,30.00,SSE,161,0.0,0.0,36,0.00,,---,0.00,VWS V14.01,2013-04-10 15:47:00,
2013-04-10 11:52:00,79.0,47.9,30.03,SSE,155,0.0,3.6,34,0.00,,---,0.00,VWS V14.01,2013-04-10 15:52:00,
2013-04-10 11:57:00,79.0,47.9,30.03,East,91,0.0,2.2,34,0.00,,---,0.00,VWS V14.01,2013-04-10 15:57:00,
2013-04-10 12:02:00,79.7,48.6,30.03,SSE,151,0.0,3.1,34,0.00,,---,0.00,VWS V14.01,2013-04-10 16:02:00,
2013-04-10 12:07:00,79.5,48.4,30.03,South,190,0.0,4.0,34,0.00,,---,0.00,VWS V14.01,2013-04-10 16:07:00,
2013-04-10 12:12:00,78.8,47.8,30.03,SSE,164,0.0,0.0,34,0.00,,---,0.00,VWS V14.01,2013-04-10 16:12:00,
2013-04-10 12:17:00,77.9,47.8,30.03,SW,220,4.9,4.9,35,0.00,,---,0.00,VWS V14.01,2013-04-10 16:17:00,
2013-04-10 12:22:00,77.7,47.7,30.00,SSW,195,3.6,3.6,35,0.00,,---,0.00,VWS V14.01,2013-04-10 16:22:00,
2013-04-10 12:27:00,78.4,47.5,30.00,WSW,243,0.0,0.0,34,0.00,,---,0.00,VWS V14.01,2013-04-10 16:27:00,
2013-04-10 12:32:00,78.6,47.6,30.00,South,181,0.0,0.0,34,0.00,,---,0.00,VWS V14.01,2013-04-10 16:32:00,
2013-04-10 12:37:00,78.6,47.6,30.00,SW,236,0.0,0.0,34,0.00,,---,0.00,VWS V14.01,2013-04-10 16:37:00,
2013-04-10 12:42:00,78.8,47.8,30.00,WNW,286,0.0,2.7,34,0.00,,---,0.00,VWS V14.01,2013-04-10 16:42:00,
2013-04-10 12:47:00,78.4,48.3,30.00,South,184,0.0,0.0,35,0.00,,---,0.00,VWS V14.01,2013-04-10 16:47:00,
2013-04-10 12:52:00,78.3,48.1,30.00,South,180,0.0,0.0,35,0.00,,---,0.00,VWS V14.01,2013-04-10 16:52:00,
2013-04-10 12:57:00,77.9,47.8,30.00,South,174,2.2,3.1,35,0.00,,---,0.00,VWS V14.01,2013-04-10 16:57:00,
2013-04-10 13:02:00,77.7,49.2,30.00,South,185,0.0,3.1,37,0.00,,---,0.00,VWS V14.01,2013-04-10 17:02:00,
2013-04-10 13:07:00,77.7,49.2,30.00,South,187,0.0,2.7,37,0.00,,---,0.00,VWS V14.01,2013-04-10 17:07:00,
2013-04-10 13:13:00,77.9,49.4,30.00,ENE,64,3.6,4.5,37,0.00,,---,0.00,VWS V14.01,2013-04-10 17:13:00,
2013-04-10 13:18:00,78.1,49.5,30.00,SW,228,0.0,3.1,37,0.00,,---,0.00,VWS V14.01,2013-04-10 17:18:00,
2013-04-10 13:23:00,79.2,50.5,30.00,SSW,211,4.9,4.9,37,0.00,,---,0.00,VWS V14.01,2013-04-10 17:23:00,
2013-04-10 13:28:00,79.9,48.7,30.00,SE,128,0.0,2.7,34,0.00,,---,0.00,VWS V14.01,2013-04-10 17:28:00,
2013-04-10 13:33:00,79.5,48.4,30.00,SSE,164,2.7,5.4,34,0.00,,---,0.00,VWS V14.01,2013-04-10 17:33:00,
2013-04-10 13:38:00,79.2,48.1,30.00,South,180,0.0,0.0,34,0.00,,---,0.00,VWS V14.01,2013-04-10 17:38:00,
2013-04-10 13:43:00,79.9,48.7,30.00,SE,138,5.4,5.8,34,0.00,,---,0.00,VWS V14.01,2013-04-10 17:43:00,
2013-04-10 13:48:00,79.9,48.7,30.00,SE,128,0.0,3.1,34,0.00,,---,0.00,VWS V14.01,2013-04-10 17:48:00,
2013-04-10 13:53:00,79.3,48.2,30.00,South,181,0.0,0.0,34,0.00,,---,0.00,VWS V14.01,2013-04-10 17:53:00,
2013-04-10 13:58:00,80.1,49.7,30.00,North,0,0.0,2.7,35,0.00,,---,0.00,VWS V14.01,2013-04-10 17:58:00,
2013-04-10 14:03:00,80.6,49.3,30.00,East,93,2.7,3.1,34,0.00,,---,0.00,VWS V14.01,2013-04-10 18:03:00,
2013-04-10 14:08:00,83.1,48.9,30.00,NE,47,0.0,3.6,30,0.00,,---,0.00,VWS V14.01,2013-04-10 18:08:00,
2013-04-10 14:13:00,83.3,49.1,30.00,SSE,157,4.0,4.0,30,0.00,,---,0.00,VWS V14.01,2013-04-10 18:13:00,
2013-04-10 14:18:00,81.5,48.4,30.00,South,169,3.1,5.8,31,0.00,,---,0.00,VWS V14.01,2013-04-10 18:18:00,
2013-04-10 14:23:00,80.2,49.0,29.97,SW,231,3.1,3.1,34,0.00,,---,0.00,VWS V14.01,2013-04-10 18:23:00,
2013-04-10 14:28:00,81.0,48.8,29.97,NE,36,2.2,2.7,33,0.00,,---,0.00,VWS V14.01,2013-04-10 18:28:00,
2013-04-10 14:33:00,81.5,48.4,29.97,South,170,3.6,4.9,31,0.00,,---,0.00,VWS V14.01,2013-04-10 18:33:00,
2013-04-10 14:38:00,81.3,48.2,29.97,South,181,0.0,2.2,31,0.00,,---,0.00,VWS V14.01,2013-04-10 18:38:00,
2013-04-10 14:43:00,81.5,48.4,29.97,South,169,0.0,2.7,31,0.00,,---,0.00,VWS V14.01,2013-04-10 18:43:00,
2013-04-10 14:48:00,81.0,48.8,29.97,SSE,159,0.0,2.7,33,0.00,,---,0.00,VWS V14.01,2013-04-10 18:48:00,
2013-04-10 14:53:00,80.6,48.5,29.97,SSE,153,0.0,0.0,33,0.00,,---,0.00,VWS V14.01,2013-04-10 18:53:00,
2013-04-10 14:58:00,80.6,48.5,29.97,SSE,150,2.2,3.1,33,0.00,,---,0.00,VWS V14.01,2013-04-10 18:58:00,
2013-04-10 15:03:00,80.2,48.2,29.97,NE,42,0.0,4.9,33,0.00,,---,0.00,VWS V14.01,2013-04-10 19:03:00,
2013-04-10 15:08:00,80.2,48.2,29.97,ENE,75,0.0,3.1,33,0.00,,---,0.00,VWS V14.01,2013-04-10 19:08:00,
2013-04-10 15:13:00,81.0,48.8,29.97,East,86,2.7,3.6,33,0.00,,---,0.00,VWS V14.01,2013-04-10 19:13:00,
2013-04-10 15:18:00,80.6,47.6,29.97,SSE,152,2.2,2.7,31,0.00,,---,0.00,VWS V14.01,2013-04-10 19:18:00,
2013-04-10 15:23:00,80.2,48.2,29.97,South,182,3.6,3.6,33,0.00,,---,0.00,VWS V14.01,2013-04-10 19:23:00,
2013-04-10 15:28:00,80.2,48.2,29.97,SSW,196,3.1,3.6,33,0.00,,---,0.00,VWS V14.01,2013-04-10 19:28:00,
2013-04-10 15:33:00,80.8,48.7,29.97,East,99,0.0,4.0,33,0.00,,---,0.00,VWS V14.01,2013-04-10 19:33:00,
2013-04-10 15:38:00,81.0,47.9,29.94,ENE,60,2.2,4.9,31,0.00,,---,0.00,VWS V14.01,2013-04-10 19:38:00,
2013-04-10 15:43:00,80.4,48.3,29.94,South,179,5.8,5.8,33,0.00,,---,0.00,VWS V14.01,2013-04-10 19:43:00,
2013-04-10 15:48:00,80.2,48.2,29.94,SE,141,0.0,3.6,33,0.00,,---,0.00,VWS V14.01,2013-04-10 19:48:00,
2013-04-10 15:53:00,80.2,48.2,29.94,ESE,108,4.0,5.8,33,0.00,,---,0.00,VWS V14.01,2013-04-10 19:53:00,
2013-04-10 15:58:00,80.8,48.7,29.94,SE,146,2.7,4.5,33,0.00,,---,0.00,VWS V14.01,2013-04-10 19:58:00,
2013-04-10 16:03:00,81.3,48.2,29.94,SE,139,2.2,2.7,31,0.00,,---,0.00,VWS V14.01,2013-04-10 20:03:00,
2013-04-10 16:08:00,81.0,47.9,29.94,SSW,212,5.4,5.4,31,0.00,,---,0.00,VWS V14.01,2013-04-10 20:08:00,
2013-04-10 16:13:00,80.1,47.2,29.94,SE,146,0.0,5.4,31,0.00,,---,0.00,VWS V14.01,2013-04-10 20:13:00,
2013-04-10 16:18:00,79.3,47.4,29.94,SE,130,3.1,3.6,33,0.00,,---,0.00,VWS V14.01,2013-04-10 20:18:00,
2013-04-10 16:23:00,79.3,47.4,29.94,South,182,4.0,4.5,33,0.00,,---,0.00,VWS V14.01,2013-04-10 20:23:00,
2013-04-10 16:28:00,79.5,47.6,29.94,ESE,111,2.2,3.1,33,0.00,,---,0.00,VWS V14.01,2013-04-10 20:28:00,
2013-04-10 16:33:00,79.9,47.9,29.94,SSE,151,0.0,3.1,33,0.00,,---,0.00,VWS V14.01,2013-04-10 20:33:00,
2013-04-10 16:38:00,79.7,46.8,29.94,East,87,5.4,5.4,31,0.00,,---,0.00,VWS V14.01,2013-04-10 20:38:00,
2013-04-10 16:43:00,79.3,47.4,29.94,SSW,209,5.8,5.8,33,0.00,,---,0.00,VWS V14.01,2013-04-10 20:43:00,
2013-04-10 16:48:00,79.0,47.1,29.94,South,181,4.0,4.0,33,0.00,,---,0.00,VWS V14.01,2013-04-10 20:48:00,
2013-04-10 16:53:00,79.0,47.9,29.94,South,185,2.7,2.7,34,0.00,,---,0.00,VWS V14.01,2013-04-10 20:53:00,
2013-04-10 16:58:00,79.2,47.2,29.94,South,171,0.0,3.1,33,0.00,,---,0.00,VWS V14.01,2013-04-10 20:58:00,
2013-04-10 17:03:00,79.5,47.6,29.94,South,175,2.2,2.2,33,0.00,,---,0.00,VWS V14.01,2013-04-10 21:03:00,
2013-04-10 17:08:00,79.5,47.6,29.94,SSE,147,4.0,6.3,33,0.00,,---,0.00,VWS V14.01,2013-04-10 21:08:00,
2013-04-10 17:13:00,79.2,48.1,29.94,SSE,155,0.0,2.2,34,0.00,,---,0.00,VWS V14.01,2013-04-10 21:13:00,
2013-04-10 17:18:00,79.2,48.1,29.94,SSE,155,0.0,3.6,34,0.00,,---,0.00,VWS V14.01,2013-04-10 21:18:00,
2013-04-10 17:23:00,79.2,47.2,29.94,South,174,3.1,5.4,33,0.00,,---,0.00,VWS V14.01,2013-04-10 21:23:00,
2013-04-10 17:28:00,79.2,47.2,29.94,SW,233,4.0,4.0,33,0.00,,---,0.00,VWS V14.01,2013-04-10 21:28:00,
2013-04-10 17:33:00,79.0,47.1,29.94,SSE,155,4.0,4.0,33,0.00,,---,0.00,VWS V14.01,2013-04-10 21:33:00,
2013-04-10 17:38:00,78.8,46.9,29.94,East,84,2.2,4.0,33,0.00,,---,0.00,VWS V14.01,2013-04-10 21:38:00,
2013-04-10 17:43:00,78.8,46.9,29.94,South,177,6.3,6.3,33,0.00,,---,0.00,VWS V14.01,2013-04-10 21:43:00,
2013-04-10 17:48:00,78.8,46.9,29.94,South,172,2.7,7.2,33,0.00,,---,0.00,VWS V14.01,2013-04-10 21:48:00,
2013-04-10 17:53:00,78.8,47.8,29.91,South,173,0.0,0.0,34,0.00,,---,0.00,VWS V14.01,2013-04-10 21:53:00,
2013-04-10 17:58:00,78.6,46.8,29.91,SSE,153,4.0,4.0,33,0.00,,---,0.00,VWS V14.01,2013-04-10 21:58:00,
2013-04-10 18:03:00,78.1,47.2,29.91,SSE,148,0.0,2.7,34,0.00,,---,0.00,VWS V14.01,2013-04-10 22:03:00,
2013-04-10 18:08:00,77.7,46.0,29.91,South,177,4.0,7.2,33,0.00,,---,0.00,VWS V14.01,2013-04-10 22:08:00,
2013-04-10 18:13:00,77.4,46.5,29.91,East,94,2.2,2.2,34,0.00,,---,0.00,VWS V14.01,2013-04-10 22:13:00,
2013-04-10 18:18:00,77.0,46.2,29.91,SSE,158,4.9,4.9,34,0.00,,---,0.00,VWS V14.01,2013-04-10 22:18:00,
2013-04-10 18:23:00,77.0,46.2,29.91,SSE,168,0.0,0.0,34,0.00,,---,0.00,VWS V14.01,2013-04-10 22:23:00,
2013-04-10 18:28:00,77.0,46.2,29.91,East,97,2.7,3.1,34,0.00,,---,0.00,VWS V14.01,2013-04-10 22:28:00,
2013-04-10 18:33:00,76.8,46.9,29.91,SSE,154,0.0,0.0,35,0.00,,---,0.00,VWS V14.01,2013-04-10 22:33:00,
2013-04-10 18:38:00,76.8,46.9,29.91,SSW,197,2.7,4.0,35,0.00,,---,0.00,VWS V14.01,2013-04-10 22:38:00,
2013-04-10 18:43:00,76.6,46.7,29.91,ESE,104,0.0,2.7,35,0.00,,---,0.00,VWS V14.01,2013-04-10 22:43:00,
2013-04-10 18:48:00,76.5,46.5,29.91,SSW,197,3.1,3.1,35,0.00,,---,0.00,VWS V14.01,2013-04-10 22:48:00,
2013-04-10 18:53:00,76.3,46.4,29.91,ENE,69,0.0,0.0,35,0.00,,---,0.00,VWS V14.01,2013-04-10 22:53:00,
2013-04-10 18:58:00,76.1,46.2,29.91,SE,130,0.0,0.0,35,0.00,,---,0.00,VWS V14.01,2013-04-10 22:58:00,
2013-04-10 19:03:00,75.9,46.9,29.91,ESE,113,0.0,0.0,36,0.00,,---,0.00,VWS V14.01,2013-04-10 23:03:00,
2013-04-10 19:08:00,75.7,46.7,29.91,East,90,0.0,0.0,36,0.00,,---,0.00,VWS V14.01,2013-04-10 23:08:00,
2013-04-10 19:13:00,75.6,47.3,29.91,South,178,0.0,0.0,37,0.00,,---,0.00,VWS V14.01,2013-04-10 23:13:00,
2013-04-10 19:18:00,75.2,47.0,29.91,SE,131,2.7,6.3,37,0.00,,---,0.00,VWS V14.01,2013-04-10 23:18:00,
2013-04-10 19:23:00,74.8,47.4,29.91,South,190,0.0,2.7,38,0.00,,---,0.00,VWS V14.01,2013-04-10 23:23:00,
2013-04-10 19:28:00,74.7,48.0,29.91,SE,136,2.2,3.1,39,0.00,,---,0.00,VWS V14.01,2013-04-10 23:28:00,
2013-04-10 19:33:00,74.5,47.8,29.91,SSE,157,0.0,2.2,39,0.00,,---,0.00,VWS V14.01,2013-04-10 23:33:00,
2013-04-10 19:38:00,74.1,48.2,29.91,ENE,58,2.7,2.7,40,0.00,,---,0.00,VWS V14.01,2013-04-10 23:38:00,
2013-04-10 19:43:00,73.9,48.8,29.91,East,92,0.0,0.0,41,0.00,,---,0.00,VWS V14.01,2013-04-10 23:43:00,
2013-04-10 19:48:00,73.8,49.9,29.91,East,83,0.0,0.0,43,0.00,,---,0.00,VWS V14.01,2013-04-10 23:48:00,
2013-04-10 19:53:00,73.6,50.4,29.91,South,189,5.4,5.4,44,0.00,,---,0.00,VWS V14.01,2013-04-10 23:53:00,
2013-04-10 19:58:00,73.6,50.4,29.91,SSW,195,0.0,0.0,44,0.00,,---,0.00,VWS V14.01,2013-04-10 23:58:00,
2013-04-10 20:03:00,73.4,51.5,29.91,South,187,0.0,0.0,46,0.00,,---,0.00,VWS V14.01,2013-04-11 00:03:00,
2013-04-10 20:08:00,73.0,51.2,29.91,ESE,116,0.0,0.0,46,0.00,,---,0.00,VWS V14.01,2013-04-11 00:08:00,
2013-04-10 20:13:00,72.9,51.6,29.91,SSW,192,0.0,3.1,47,0.00,,---,0.00,VWS V14.01,2013-04-11 00:13:00,
2013-04-10 20:18:00,72.7,52.0,29.91,South,180,0.0,2.7,48,0.00,,---,0.00,VWS V14.01,2013-04-11 00:18:00,
2013-04-10 20:23:00,72.7,52.6,29.91,NE,56,0.0,0.0,49,0.00,,---,0.00,VWS V14.01,2013-04-11 00:23:00,
2013-04-10 20:28:00,72.5,52.5,29.91,East,95,0.0,0.0,49,0.00,,---,0.00,VWS V14.01,2013-04-11 00:28:00,
2013-04-10 20:33:00,72.5,53.0,29.91,SE,145,0.0,0.0,50,0.00,,---,0.00,VWS V14.01,2013-04-11 00:33:00,
2013-04-10 20:38:00,72.3,52.9,29.91,SSW,210,0.0,0.0,50,0.00,,---,0.00,VWS V14.01,2013-04-11 00:38:00,
2013-04-10 20:43:00,72.1,53.3,29.91,East,101,0.0,0.0,51,0.00,,---,0.00,VWS V14.01,2013-04-11 00:43:00,
2013-04-10 20:48:00,72.1,53.3,29.91,SW,221,0.0,3.6,51,0.00,,---,0.00,VWS V14.01,2013-04-11 00:48:00,
2013-04-10 20:53:00,72.0,53.7,29.91,ESE,102,0.0,0.0,52,0.00,,---,0.00,VWS V14.01,2013-04-11 00:53:00,
2013-04-10 20:58:00,72.0,53.7,29.91,East,101,0.0,0.0,52,0.00,,---,0.00,VWS V14.01,2013-04-11 00:58:00,
2013-04-10 21:03:00,71.8,54.0,29.91,East,101,0.0,2.2,54,0.00,,---,0.00,VWS V14.01,2013-04-11 01:03:00,
2013-04-10 21:08:00,71.6,53.9,29.91,South,188,0.0,3.1,54,0.00,,---,0.00,VWS V14.01,2013-04-11 01:08:00,
2013-04-10 21:13:00,71.6,54.4,29.91,South,189,0.0,2.2,55,0.00,,---,0.00,VWS V14.01,2013-04-11 01:13:00,
2013-04-10 21:18:00,71.4,54.8,29.91,SSW,192,0.0,0.0,56,0.00,,---,0.00,VWS V14.01,2013-04-11 01:18:00,
2013-04-10 21:23:00,71.2,55.1,29.91,SW,220,0.0,0.0,57,0.00,,---,0.00,VWS V14.01,2013-04-11 01:23:00,
2013-04-10 21:28:00,71.1,54.9,29.91,SW,219,0.0,0.0,57,0.00,,---,0.00,VWS V14.01,2013-04-11 01:28:00,
2013-04-10 21:33:00,71.1,55.9,29.91,SSE,153,4.9,4.9,59,0.00,,---,0.00,VWS V14.01,2013-04-11 01:33:00,
2013-04-10 21:38:00,70.9,55.8,29.91,SSE,166,0.0,0.0,59,0.00,,---,0.00,VWS V14.01,2013-04-11 01:38:00,
2013-04-10 21:43:00,70.9,56.2,29.91,South,172,0.0,0.0,60,0.00,,---,0.00,VWS V14.01,2013-04-11 01:43:00,
2013-04-10 21:48:00,70.7,56.1,29.91,South,179,0.0,2.7,60,0.00,,---,0.00,VWS V14.01,2013-04-11 01:48:00,
2013-04-10 21:53:00,70.7,56.6,29.91,SSE,159,0.0,0.0,61,0.00,,---,0.00,VWS V14.01,2013-04-11 01:53:00,
2013-04-10 21:58:00,70.5,56.4,29.91,South,177,0.0,3.1,61,0.00,,---,0.00,VWS V14.01,2013-04-11 01:58:00,
2013-04-10 22:03:00,70.5,56.9,29.91,SSE,162,2.2,5.4,62,0.00,,---,0.00,VWS V14.01,2013-04-11 02:03:00,
2013-04-10 22:08:00,70.3,57.2,29.91,SSE,168,0.0,0.0,63,0.00,,---,0.00,VWS V14.01,2013-04-11 02:08:00,
2013-04-10 22:13:00,70.3,57.6,29.91,SSE,154,0.0,0.0,64,0.00,,---,0.00,VWS V14.01,2013-04-11 02:13:00,
2013-04-10 22:18:00,70.3,57.6,29.91,South,177,0.0,2.2,64,0.00,,---,0.00,VWS V14.01,2013-04-11 02:18:00,
2013-04-10 22:23:00,70.3,58.1,29.91,SSW,195,0.0,2.2,65,0.00,,---,0.00,VWS V14.01,2013-04-11 02:23:00,
2013-04-10 22:28:00,70.3,58.1,29.91,South,179,2.7,2.7,65,0.00,,---,0.00,VWS V14.01,2013-04-11 02:28:00,
2013-04-10 22:33:00,70.3,58.5,29.91,SSE,167,2.7,3.6,66,0.00,,---,0.00,VWS V14.01,2013-04-11 02:33:00,
2013-04-10 22:38:00,70.3,58.5,29.91,South,180,3.6,3.6,66,0.00,,---,0.00,VWS V14.01,2013-04-11 02:38:00,
2013-04-10 22:43:00,70.3,59.0,29.91,South,170,0.0,0.0,67,0.00,,---,0.00,VWS V14.01,2013-04-11 02:43:00,
2013-04-10 22:48:00,70.3,59.0,29.91,South,171,3.6,3.6,67,0.00,,---,0.00,VWS V14.01,2013-04-11 02:48:00,
2013-04-10 22:53:00,70.2,58.8,29.91,SSE,159,0.0,0.0,67,0.00,,---,0.00,VWS V14.01,2013-04-11 02:53:00,
2013-04-10 22:58:00,70.2,59.2,29.91,SSW,213,0.0,2.2,68,0.00,,---,0.00,VWS V14.01,2013-04-11 02:58:00,
2013-04-10 23:03:00,70.2,59.2,29.91,SSE,166,0.0,0.0,68,0.00,,---,0.00,VWS V14.01,2013-04-11 03:03:00,
2013-04-10 23:08:00,70.2,59.7,29.91,SSE,162,3.6,3.6,69,0.00,,---,0.00,VWS V14.01,2013-04-11 03:08:00,
2013-04-10 23:13:00,70.2,59.7,29.91,SSE,155,0.0,0.0,69,0.00,,---,0.00,VWS V14.01,2013-04-11 03:13:00,
2013-04-10 23:18:00,70.2,60.5,29.91,South,187,2.7,4.0,71,0.00,,---,0.00,VWS V14.01,2013-04-11 03:18:00,
2013-04-10 23:23:00,70.2,60.5,29.91,South,191,3.6,3.6,71,0.00,,---,0.00,VWS V14.01,2013-04-11 03:23:00,
2013-04-10 23:28:00,70.2,60.9,29.91,SSE,157,5.8,5.8,72,0.00,,---,0.00,VWS V14.01,2013-04-11 03:28:00,
2013-04-10 23:34:00,70.3,61.1,29.91,SSE,159,3.6,4.0,72,0.00,,---,0.00,VWS V14.01,2013-04-11 03:34:00,
2013-04-10 23:39:00,70.2,60.9,29.91,South,170,2.2,2.2,72,0.00,,---,0.00,VWS V14.01,2013-04-11 03:39:00,
2013-04-10 23:44:00,70.2,60.9,29.91,South,176,3.6,3.6,72,0.00,,---,0.00,VWS V14.01,2013-04-11 03:44:00,
2013-04-10 23:49:00,70.2,61.3,29.91,South,177,2.2,4.0,74,0.00,,---,0.00,VWS V14.01,2013-04-11 03:49:00,
2013-04-10 23:54:00,70.2,61.3,29.91,South,180,3.1,3.1,74,0.00,,---,0.00,VWS V14.01,2013-04-11 03:54:00,
2013-04-10 23:59:00,70.2,61.7,29.91,South,190,2.7,3.1,75,0.00,,---,0.00,VWS V14.01,2013-04-11 03:59:00,